Regional Weather Roundup
Issued by NWS Sioux Falls, SD

Home | Current Version | Previous Version | Text Only | Print | Product List | Glossary On
Versions: 1 2 3 4 5 6 7 8 9 10 11 12 13 14 15 16 17 18 19 20 21 22 23 24 25 26 27 28 29 30 31 32 33 34 35 36 37 38 39 40 41 42 43 44 45 46 47 48 49 50
000
ASUS43 KFSD 191210
RWRFSD

WEATHER ROUNDUP FOR SE SOUTH DAKOTA/SW MINNESOTA/NW IOWA
NATIONAL WEATHER SERVICE SIOUX FALLS SD
600 AM CST MON FEB 19 2018

NOTE: "FAIR" INDICATES FEW OR NO CLOUDS BELOW 12,000 FEET WITH NO
SIGNIFICANT WEATHER AND OR OBSTRUCTIONS TO VISIBILITY.


SDZ038>040-050-052>070-191300-
SOUTHEAST SOUTH DAKOTA

CITY           SKY/WX    TMP DP  RH WIND       PRES   REMARKS
BROOKINGS      FLURRIES  11   6  81 N21G29    29.89R WCI  -8
CHAMBERLAIN    FLURRIES  11   7  82 NW21G29   29.99F WCI  -8
6HR MIN TEMP:  11; 6HR MAX TEMP:  14;

HURON          LGT SNOW  10   6  84 N24G31    30.01R FOG     WCI -10
6HR MIN TEMP:  10; 6HR MAX TEMP:  12; 6HR PCP: TRACE;

MADISON        CLOUDY    12  12 100 N23       29.88R WCI  -7
MITCHELL       CLOUDY    13   8  81 N23       29.96R WCI  -6
6HR MIN TEMP:  13; 6HR MAX TEMP:  15; 6HR PCP: TRACE;

SIOUX FALLS    FRZ DRZL  16  11  80 N18       29.85R WCI   0
6HR MIN TEMP:  16; 6HR MAX TEMP:  19; 6HR PCP: TRACE;

WINNER         LGT SNOW  10   5  80 N18       29.97S WCI  -8
YANKTON        MIX PCPN  17  14  88 N18       29.86R WCI   1
$$

MNZ071-072-080-081-089-090-097-098-191300-
SOUTHWEST MINNESOTA

CITY           SKY/WX    TMP DP  RH WIND       PRES   REMARKS
FAIRMONT       MIX PCPN  22  20  92 N21G28    29.80R WCI   6
JACKSON        CLOUDY    19  16  86 VRB21G26  29.79R FOG     WCI   3
LUVERNE        CLOUDY    16  10  79 N16G25    29.84R WCI   0
MARSHALL       CLOUDY    15  10  80 N18G26    29.91S WCI  -2
6HR MIN TEMP:  14; 6HR MAX TEMP:  16; 6HR PCP: TRACE;

MONTEVIDEO     CLOUDY    16  10  79 NE18G24   29.95F WCI  -1
PIPESTONE      CLOUDY    12   9  85 NE21G29   29.83R WCI  -6
REDWOOD FALLS  CLOUDY    16  10  77 N20G29    29.89F WCI  -1
TRACY          CLOUDY    17  13  86 N18G25    29.87R WCI   0
WINDOM         CLOUDY    16   3  57 N25       29.81R WCI  -3
WORTHINGTON    LGT SNOW  16  13  88 N22G30    29.81R FOG     WCI  -2
$$

IAZ001>003-012>014-020>022-031-032-NEZ013-014-SDZ071-191300-
NORTHWEST IOWA

CITY           SKY/WX    TMP DP  RH WIND       PRES   REMARKS
CHEROKEE       LGT SNOW  22  21  96 N14G21    29.77R WCI   9
DENISON        LGT SNOW  27  27 100 N25       29.72R WCI  11
ESTHERVILLE    LGT SNOW  21  19  92 N24G33    29.77R FOG     WCI   4
LE MARS        LGT SNOW  19  18  93 N30G37    29.80S WCI   0
ORANGE CITY    MIX PCPN  19  18  93 N13G21    29.80R WCI   7
SHELDON        LGT SNOW  18  18 100 MISG      29.78R
SIOUX CITY     MIX PCPN  21  18  88 N20G32    29.79R FOG     WCI   6
6HR MIN TEMP:  21; 6HR MAX TEMP:  30; 6HR PCP: TRACE;

SPENCER        MIX PCPN  22  20  92 MISG      29.77R FOG
6HR MIN TEMP:  22; 6HR MAX TEMP:  25; 6HR PCP: TRACE;

STORM LAKE     LGT SNOW  23  23 100 MISG      29.72S
$$

ABBREVIATIONS USED IN REMARKS
   TC - TEMPERATURE IN CELSIUS
  WCI - WIND CHILL INDEX
   HX - HEAT INDEX
  VSB - VISIBILITY





USA.gov is the U.S. government's official web portal to all federal, state and local government web resources and services.